Hourly Weather Mansoa

Today, 24 October, Saturday

Time Temperature Precipitation Wind Pressure Humidity
00:00 +28°C° 0 mm 2 mps 757 mmHg 82%
01:00 +28°C° 0 mm 2 mps 757 mmHg 83%
02:00 +27°C° 0 mm 1 mps 756 mmHg 85%
03:00 +27°C° 0 mm 1 mps 756 mmHg 86%
04:00 +27°C° 0 mm 2 mps 756 mmHg 87%
05:00 +27°C° 0 mm 2 mps 756 mmHg 88%
06:00 +28°C° 0 mm 2 mps 757 mmHg 82%
07:00 +29°C° 0 mm 1 mps 757 mmHg 76%
08:00 +31°C° 0 mm 1 mps 758 mmHg 70%
09:00 +33°C° 0 mm 1 mps 758 mmHg 62%
10:00 +35°C° 0 mm 1 mps 758 mmHg 54%
11:00 +37°C° 0 mm 1 mps 758 mmHg 45%
12:00 +37°C° 0 mm 1 mps 757 mmHg 44%
13:00 +37°C° 0 mm 1 mps 756 mmHg 43%
14:00 +39°C° 0 mm 1 mps 756 mmHg 42%
15:00 +37°C° 0 mm 2 mps 756 mmHg 50%
16:00 +35°C° 0 mm 2 mps 756 mmHg 59%
17:00 +32°C° 0 mm 2 mps 756 mmHg 67%
18:00 +31°C° 0 mm 2 mps 756 mmHg 71%
19:00 +30°C° 0 mm 2 mps 756 mmHg 76%
20:00 +29°C° 0 mm 2 mps 757 mmHg 81%
21:00 +29°C° 0 mm 2 mps 757 mmHg 81%
22:00 +28°C° 0 mm 2 mps 757 mmHg 82%
23:00 +28°C° 0 mm 2 mps 757 mmHg 83%

Tomorrow, 25 October, Sunday

Time Temperature Precipitation Wind Pressure Humidity
00:00 +28°C° 0 mm 2 mps 756 mmHg 84%
01:00 +27°C° 0 mm 2 mps 756 mmHg 85%
02:00 +27°C° 0 mm 1 mps 755 mmHg 86%
03:00 +27°C° 0 mm 1 mps 755 mmHg 87%
04:00 +26°C° 0 mm 1 mps 755 mmHg 88%
05:00 +26°C° 0 mm 1 mps 755 mmHg 89%
06:00 +27°C° 0 mm 1 mps 756 mmHg 85%
07:00 +29°C° 0 mm 1 mps 756 mmHg 80%
08:00 +30°C° 0 mm 1 mps 757 mmHg 76%
09:00 +32°C° 0 mm 1 mps 757 mmHg 67%
10:00 +35°C° 0 mm 1 mps 757 mmHg 58%
11:00 +35°C° 0 mm 0 mps 757 mmHg 49%
12:00 +37°C° 0 mm 1 mps 756 mmHg 46%
13:00 +39°C° 0 mm 1 mps 755 mmHg 44%
14:00 +39°C° 0 mm 1 mps 755 mmHg 41%
15:00 +36°C° 0 mm 1 mps 755 mmHg 47%
16:00 +35°C° 0 mm 1 mps 755 mmHg 53%
17:00 +35°C° 0 mm 2 mps 755 mmHg 59%
18:00 +32°C° 0 mm 2 mps 755 mmHg 66%
19:00 +30°C° 0 mm 2 mps 756 mmHg 73%
20:00 +29°C° 0 mm 2 mps 756 mmHg 80%
21:00 +28°C° 0 mm 2 mps 756 mmHg 82%
22:00 +28°C° 0 mm 2 mps 756 mmHg 84%
23:00 +27°C° 0 mm 2 mps 756 mmHg 85%

Day after tomorrow, 26 October, Monday

Time Temperature Precipitation Wind Pressure Humidity
00:00 +27°C° 0 mm 2 mps 756 mmHg 87%
01:00 +27°C° 0 mm 2 mps 755 mmHg 88%
02:00 +26°C° 0 mm 2 mps 755 mmHg 89%
03:00 +26°C° 0 mm 1 mps 755 mmHg 91%
04:00 +26°C° 0 mm 1 mps 755 mmHg 92%
05:00 +23°C° 0 mm 0 mps 755 mmHg 94%
06:00 +27°C° 0 mm 1 mps 756 mmHg 88%
07:00 +29°C° 0 mm 1 mps 756 mmHg 82%
08:00 +30°C° 0 mm 1 mps 757 mmHg 76%
09:00 +32°C° 0 mm 1 mps 757 mmHg 67%
10:00 +34°C° 0 mm 1 mps 756 mmHg 57%
11:00 +36°C° 0 mm 1 mps 756 mmHg 48%
12:00 +37°C° 0 mm 1 mps 756 mmHg 45%
13:00 +37°C° 0 mm 1 mps 755 mmHg 42%
14:00 +38°C° 0 mm 2 mps 754 mmHg 39%
15:00 +37°C° 0 mm 2 mps 754 mmHg 47%
16:00 +35°C° 0 mm 2 mps 754 mmHg 56%
17:00 +32°C° 0 mm 2 mps 754 mmHg 64%
18:00 +31°C° 0 mm 2 mps 755 mmHg 71%
19:00 +30°C° 0 mm 2 mps 755 mmHg 79%
20:00 +28°C° 0 mm 2 mps 756 mmHg 86%
21:00 +28°C° 0 mm 2 mps 756 mmHg 88%
22:00 +27°C° 0 mm 2 mps 756 mmHg 90%
23:00 +27°C° 0 mm 2 mps 756 mmHg 93%

, 27 October, Tuesday

Time Temperature Precipitation Wind Pressure Humidity
00:00 +27°C° 0 mm 2 mps 756 mmHg 94%
01:00 +27°C° 0 mm 1 mps 755 mmHg 95%
02:00 +26°C° 0 mm 1 mps 755 mmHg 96%
03:00 +26°C° 0 mm 1 mps 755 mmHg 97%
04:00 +26°C° 0 mm 1 mps 755 mmHg 97%
05:00 +26°C° 0 mm 1 mps 755 mmHg 97%
06:00 +27°C° 0 mm 1 mps 755 mmHg 92%
07:00 +28°C° 0 mm 1 mps 756 mmHg 86%
08:00 +30°C° 0 mm 2 mps 756 mmHg 80%
09:00 +32°C° 0 mm 1 mps 756 mmHg 69%
10:00 +34°C° 0 mm 1 mps 756 mmHg 58%
11:00 +36°C° 0 mm 1 mps 756 mmHg 47%
12:00 +37°C° 0 mm 1 mps 755 mmHg 45%
13:00 +37°C° 0 mm 1 mps 755 mmHg 43%
14:00 +38°C° 0 mm 2 mps 754 mmHg 41%
15:00 +36°C° 0 mm 2 mps 754 mmHg 49%
16:00 +35°C° 0 mm 2 mps 754 mmHg 57%
17:00 +32°C° 0 mm 2 mps 754 mmHg 65%
18:00 +31°C° 0 mm 2 mps 755 mmHg 72%
19:00 +29°C° 0 mm 2 mps 755 mmHg 79%
20:00 +28°C° 0 mm 2 mps 756 mmHg 87%
21:00 +28°C° 0 mm 2 mps 756 mmHg 88%
22:00 +27°C° 0 mm 2 mps 756 mmHg 90%
23:00 +27°C° 0 mm 2 mps 756 mmHg 92%

27 October, Tuesday

Time Temperature Precipitation Wind Pressure Humidity
00:00 +27°C° 0 mm 2 mps 756 mmHg 94%
01:00 +27°C° 0 mm 1 mps 755 mmHg 95%
02:00 +26°C° 0 mm 1 mps 755 mmHg 96%
03:00 +26°C° 0 mm 1 mps 755 mmHg 97%
04:00 +26°C° 0 mm 1 mps 755 mmHg 97%
05:00 +26°C° 0 mm 1 mps 755 mmHg 97%
06:00 +27°C° 0 mm 1 mps 755 mmHg 92%
07:00 +28°C° 0 mm 1 mps 756 mmHg 86%
08:00 +30°C° 0 mm 2 mps 756 mmHg 80%
09:00 +32°C° 0 mm 1 mps 756 mmHg 69%
10:00 +34°C° 0 mm 1 mps 756 mmHg 58%
11:00 +36°C° 0 mm 1 mps 756 mmHg 47%
12:00 +37°C° 0 mm 1 mps 755 mmHg 45%
13:00 +37°C° 0 mm 1 mps 755 mmHg 43%
14:00 +38°C° 0 mm 2 mps 754 mmHg 41%
15:00 +36°C° 0 mm 2 mps 754 mmHg 49%
16:00 +35°C° 0 mm 2 mps 754 mmHg 57%
17:00 +32°C° 0 mm 2 mps 754 mmHg 65%
18:00 +31°C° 0 mm 2 mps 755 mmHg 72%
19:00 +29°C° 0 mm 2 mps 755 mmHg 79%
20:00 +28°C° 0 mm 2 mps 756 mmHg 87%
21:00 +28°C° 0 mm 2 mps 756 mmHg 88%
22:00 +27°C° 0 mm 2 mps 756 mmHg 90%
23:00 +27°C° 0 mm 2 mps 756 mmHg 92%

28 October, Wednesday

Time Temperature Precipitation Wind Pressure Humidity
00:00 +27°C° 0 mm 1 mps 756 mmHg 93%
01:00 +26°C° 0 mm 1 mps 755 mmHg 94%
02:00 +26°C° 0 mm 1 mps 755 mmHg 95%
03:00 +26°C° 0 mm 1 mps 755 mmHg 96%
04:00 +25°C° 0 mm 1 mps 755 mmHg 96%
05:00 +25°C° 0 mm 1 mps 755 mmHg 97%
06:00 +27°C° 0 mm 1 mps 756 mmHg 91%
07:00 +28°C° 0 mm 1 mps 756 mmHg 85%
08:00 +29°C° 0 mm 1 mps 756 mmHg 79%
09:00 +32°C° 0 mm 1 mps 756 mmHg 69%
10:00 +34°C° 0 mm 1 mps 756 mmHg 59%
11:00 +36°C° 0 mm 1 mps 756 mmHg 48%
12:00 +36°C° 0 mm 1 mps 756 mmHg 45%
13:00 +37°C° 0 mm 1 mps 755 mmHg 42%
14:00 +38°C° 0 mm 2 mps 754 mmHg 39%
15:00 +37°C° 0 mm 2 mps 754 mmHg 46%
16:00 +35°C° 0 mm 2 mps 755 mmHg 53%
17:00 +32°C° 0 mm 2 mps 755 mmHg 61%
18:00 +31°C° 0 mm 2 mps 755 mmHg 68%
19:00 +30°C° 0 mm 2 mps 756 mmHg 75%
20:00 +28°C° 0 mm 2 mps 756 mmHg 82%
21:00 +28°C° 0 mm 2 mps 756 mmHg 84%
22:00 +27°C° 0 mm 2 mps 756 mmHg 85%
23:00 +27°C° 0 mm 2 mps 756 mmHg 86%

29 October, Thursday

Time Temperature Precipitation Wind Pressure Humidity
00:00 +26°C° 0 mm 2 mps 756 mmHg 88%
01:00 +26°C° 0 mm 2 mps 756 mmHg 90%
02:00 +25°C° 0 mm 2 mps 755 mmHg 92%
03:00 +25°C° 0 mm 1 mps 755 mmHg 93%
04:00 +25°C° 0 mm 1 mps 755 mmHg 94%
05:00 +24°C° 0 mm 1 mps 755 mmHg 95%
06:00 +26°C° 0 mm 1 mps 756 mmHg 88%
07:00 +28°C° 0 mm 1 mps 756 mmHg 80%
08:00 +27°C° 0 mm 0 mps 756 mmHg 73%
09:00 +30°C° 0 mm 0 mps 756 mmHg 63%
10:00 +34°C° 0 mm 1 mps 756 mmHg 52%
11:00 +37°C° 0 mm 1 mps 756 mmHg 42%
12:00 +37°C° 0 mm 1 mps 756 mmHg 38%
13:00 +39°C° 0 mm 1 mps 755 mmHg 34%
14:00 +39°C° 0 mm 1 mps 754 mmHg 29%
15:00 +37°C° 0 mm 1 mps 754 mmHg 36%
16:00 +35°C° 0 mm 1 mps 754 mmHg 42%
17:00 +33°C° 0 mm 1 mps 754 mmHg 49%
18:00 +32°C° 0 mm 1 mps 755 mmHg 59%
19:00 +30°C° 0 mm 1 mps 756 mmHg 68%
20:00 +28°C° 0 mm 2 mps 756 mmHg 78%
21:00 +27°C° 0 mm 2 mps 756 mmHg 79%
22:00 +27°C° 0 mm 2 mps 756 mmHg 81%
23:00 +26°C° 0 mm 2 mps 756 mmHg 82%
Show more